Simultaneous Nadir Overpasses (SNOs) Predictions

Prediction of SNOs between GOES-16 and METOP-B Satellite Orbit:

Table of predicted SNOs for the next 14.0 days since TLE Epoch: 5/9/2020
Index Date Time (GOES-16) GOES-16 Lat,Lon METOP-B Lat,Lon Distance(km) Time Diff (sec)
1 05/10/2020 02:46:50 -0.04, -75.18 -0.79, -78.63 392.74 80
2 05/11/2020 02:23:31 -0.03, -75.18 0.31, -73.63 176.72 80
3 05/12/2020 14:42:22 0.03, -75.23 0.71, -78.19 338.50 80
4 05/13/2020 14:24:23 0.02, -75.24 -0.40, -73.20 231.53 80
5 05/15/2020 02:43:24 -0.02, -75.22 -0.59, -77.80 294.19 80
6 05/16/2020 02:20:05 -0.02, -75.23 0.52, -72.81 276.30 80
7 05/17/2020 14:38:56 0.02, -75.29 0.50, -77.37 237.36 80
8 05/18/2020 14:20:56 0.01, -75.31 -0.61, -72.37 333.67 80
9 05/20/2020 02:39:58 -0.01, -75.31 -0.38, -76.98 190.64 80
10 05/21/2020 02:16:38 -0.01, -75.32 0.73, -71.98 380.52 80
11 05/22/2020 14:35:30 0.01, -75.39 0.28, -76.55 132.45 80




NCC Satellite Simultaneous Nadir Overpasses (SNOs) Prediction Service
